This is the latest recevied weather packets stored in our database for station/object KU9TRY. If no packets are shown the sender has not sent any weather packets the latest 10 day(s).
| Time | Temp. | Humidity | Pressure | Rain* | Wind** | Luminosity | Snow |
|---|---|---|---|---|---|---|---|
| 1778258786 | 20° C | 31% | 1016.7 hPa | 0 mm | - | 1011 W/m² | - |
| 1778258484 | 20° C | 34% | 1016.7 hPa | 0 mm | - | 1006 W/m² | - |
| 1778258181 | 19.44° C | 32% | 1016.8 hPa | 0 mm | - | 1003 W/m² | - |
| 1778257878 | 20° C | 33% | 1017 hPa | 0 mm | - | 997 W/m² | - |
| 1778257574 | 20° C | 37% | 1017.1 hPa | 0 mm | - | 991 W/m² | - |
| 1778257272 | 20° C | 37% | 1017.4 hPa | 0 mm | - | 985 W/m² | - |
| 1778256968 | 20° C | 39% | 1017.4 hPa | 0 mm | - | 979 W/m² | - |
| 1778256666 | 19.44° C | 39% | 1017.4 hPa | 0 mm | - | 970 W/m² | - |
| 1778256364 | 19.44° C | 38% | 1017.6 hPa | 0 mm | - | 964 W/m² | - |
| 1778256061 | 18.89° C | 38% | 1017.6 hPa | 0 mm | - | 956 W/m² | - |
| 1778255758 | 18.89° C | 37% | 1017.9 hPa | 0 mm | - | 946 W/m² | - |
| 1778255455 | 18.89° C | 35% | 1017.7 hPa | 0 mm | - | 938 W/m² | - |
| 1778255152 | 18.89° C | 35% | 1017.8 hPa | 0 mm | - | 927 W/m² | - |
| 1778254849 | 18.89° C | 35% | 1017.7 hPa | 0 mm | - | 919 W/m² | - |
| 1778254545 | 18.89° C | 36% | 1017.9 hPa | 0 mm | - | 908 W/m² | - |
| 1778254242 | 18.89° C | 39% | 1018 hPa | 0 mm | - | 843 W/m² | - |
| 1778253940 | 18.89° C | 38% | 1017.9 hPa | 0 mm | - | 884 W/m² | - |
| 1778253634 | 18.89° C | 35% | 1018.1 hPa | 0 mm | - | 872 W/m² | - |
| 1778253331 | 18.33° C | 35% | 1018.1 hPa | 0 mm | - | 858 W/m² | - |
| 1778253028 | 18.33° C | 36% | 1018.2 hPa | 0 mm | - | 846 W/m² | - |
| 1778252726 | 18.33° C | 41% | 1018.3 hPa | 0 mm | - | 831 W/m² | - |
| 1778252421 | 17.78° C | 44% | 1018.2 hPa | 0 mm | - | 816 W/m² | - |
| 1778252118 | 17.78° C | 40% | 1018.1 hPa | 0 mm | - | 767 W/m² | - |
| 1778251814 | 17.78° C | 45% | 1018.3 hPa | 0 mm | - | 787 W/m² | - |
| 1778251512 | 17.78° C | 43% | 1018.3 hPa | 0 mm | - | 770 W/m² | - |
* Rain latest hour (hover to see other rain measurements)
** Current wind speed in m/s (hover to see current wind gust speed)